Location: ???????
(38.0794°N, 23.5234°E)
Time: 15:34:07
(UTC+00:00)

Daily predictions for brighter satellites

Satellite Brightness Start Highest point End
(mag) Time Altitude Azimuth Time Altitude Azimuth Time Altitude Azimuth
Hubble Space Telescope 2.6 18:13:17 10° SSW 18:15:27 14° SSE 18:17:38 10° SE
USA 215 3.8 18:11:32 10° ESE 18:17:49 50° NE 18:24:06 10° NW
Meteor 2-5 Rocket 3.9 18:18:10 10° S 18:23:52 82° W 18:29:29 10° N
Genesis I 3.0 18:25:13 10° NNW 18:28:50 75° ENE 18:32:25 10° SE
Centaur D-1AR AC-39 4.3 18:25:36 10° SSW 18:29:56 23° SSE 18:41:25 10° ESE
Nadezhda 1 Rocket 4.5 18:24:36 10° NNW 18:30:36 63° W 18:36:33 10° S
Cosmos 1943 3.4 18:26:21 10° NNW 18:31:54 57° ENE 18:37:24 10° SE
Cosmos 2263 Rocket 4.3 18:27:19 10° WSW 18:32:15 32° WNW 18:37:12 10° N
Cosmos 1825 2.0 18:29:05 10° S 18:32:23 54° E 18:35:42 10° NNE
CZ-4 R/B 3.1 18:30:06 10° SSW 18:33:47 33° W 18:37:27 10° NNW
Feng Yun 1-1 Rocket 4.5 18:33:15 10° S 18:38:45 72° WSW 18:44:11 10° NNW
Cosmos 1844 Rocket 2.7 18:33:58 10° S 18:39:23 56° ESE 18:44:49 10° NNE
SPOT 5 3.6 18:35:57 10° SE 18:40:17 38° ENE 18:44:56 10° N
ISS -1.4 18:38:29 10° W 18:41:22 27° NNW 18:44:16 10° NNE
ARGOS Delta rocket 3.8 18:37:53 10° SSE 18:42:22 64° ENE 18:47:07 10° N
Cosmos 2221 Rocket 3.5 18:40:07 10° S 18:44:27 68° E 18:48:50 10° NNE
Cosmos 405 Rocket 4.0 18:43:31 10° NNW 18:46:56 38° W 18:50:17 10° SSW
Cosmos 1378 Rocket 3.7 18:43:01 10° S 18:47:26 80° W 18:51:53 10° N
SL-16 R/B 3.9 18:42:41 10° NW 18:47:35 31° WSW 18:52:28 10° SSW
NOSS 2-3 (E) 4.1 18:48:18 10° S 18:51:25 26° ESE 18:54:33 10° ENE
USA 186 4.2 18:50:54 10° SSW 18:53:18 20° W 18:55:41 10° NW
GP-B 3.3 18:49:31 10° NNE 18:53:49 50° E 18:57:46 12° SSE
MetOp-B 4.4 18:50:36 13° SSE 18:55:16 54° ENE 19:00:29 10° N
Cosmos 1603 4.0 18:49:40 10° NNW 18:55:16 54° ENE 18:59:38 16° SE
Sich 1 Rocket 3.5 18:52:04 10° N 18:56:30 76° E 19:00:43 12° SSE
NOSS 2-2 (E) 3.6 18:54:16 10° S 18:57:33 32° ESE 19:00:25 10° NE
NOSS 2-2 (C) 2.7 18:56:50 10° SSW 19:00:20 60° ESE 19:03:24 10° NE
Cosmos 2084 3.9 18:57:14 10° S 19:01:05 35° ESE 19:04:49 10° NE
ATLAS 5 CENTAUR R/B 1.7 18:58:58 10° SW 19:02:07 51° NW 19:05:29 10° NNE
Okean 1 Rocket 3.3 18:57:54 10° N 19:02:17 55° E 19:05:30 18° SSE
OAO 2 Rocket 3.5 18:57:46 10° W 19:02:53 59° S 19:06:44 18° ESE
Cosmos 1674 Rocket 4.1 19:01:21 10° SSW 19:05:34 59° W 19:09:50 10° N
Cosmos 1975 Rocket 4.3 19:04:51 20° ESE 19:06:36 25° E 19:10:16 10° NE
Resurs 01 Rocket 3.4 19:03:01 10° SSW 19:06:49 29° W 19:10:39 10° NW
NOSS 2-3 (C) 3.4 19:04:33 10° S 19:08:00 40° ESE 19:11:31 10° NE
Cosmos 923 Rocket 4.3 19:02:59 10° NNW 19:08:07 64° WSW 19:12:55 12° S
Cosmos 1455 Rocket 4.2 19:05:50 10° NNE 19:09:33 26° ENE 19:11:15 21° ESE
Cosmos 2154 Rocket 4.2 19:04:29 11° SSE 19:10:23 52° E 19:16:31 10° NNE
IRS-1C Rocket 4.2 19:08:42 18° SSE 19:12:30 61° ENE 19:17:41 10° N
Cosmos 2074 Rocket 4.0 19:08:34 10° S 19:14:45 73° E 19:21:00 10° N
Cosmos 1025 Rocket 2.9 19:11:45 13° S 19:15:25 69° E 19:19:39 10° NNE
Okean O Rocket 3.2 19:14:20 10° SSW 19:18:12 32° W 19:22:03 10° NW
Spot 2 Rocket 4.1 19:15:36 22° SE 19:18:23 40° ENE 19:23:08 10° N
Cosmos 1328 4.0 19:14:36 10° SSW 19:18:25 67° W 19:22:13 10° N
Okean 2 Rocket 3.7 19:16:46 10° NNW 19:21:09 54° W 19:25:17 11° S
Cosmos 2151 Rocket 4.5 19:17:41 10° NNW 19:21:55 47° W 19:26:10 10° SSW
ERS-1 Rocket 3.0 19:20:15 23° SSE 19:23:18 63° ENE 19:28:15 10° N
Meteor 1-21 Rocket 4.1 19:25:47 10° S 19:31:21 86° E 19:36:54 10° N
Timation 2 Rocket 3.9 19:25:03 10° S 19:31:23 65° ESE 19:37:30 10° NNE
Cosmos 1606 4.3 19:30:05 10° NNE 19:32:30 18° ENE 19:32:30 18° ENE
CZ-4C R/B 4.0 19:29:31 10° N 19:33:05 48° WNW 19:36:29 10° SSW
Meteor 2-11 Rocket 4.4 19:28:23 13° S 19:33:49 78° E 19:39:59 10° N
Terra 1.8 19:31:38 29° SSE 19:33:57 67° ENE 19:38:38 10° N
NOSS 2-2 (D) 2.8 19:32:14 10° SW 19:35:48 82° WNW 19:38:56 10° NNE
Cosmos 1680 Rocket 4.4 19:34:08 10° NNW 19:39:06 44° WSW 19:42:53 16° SSW
In-Cosmos 22 Rocket 4.2 19:35:09 20° S 19:39:09 68° E 19:44:49 10° NNE
USA 245 4.4 19:36:30 24° SSE 19:40:24 88° ENE 19:46:49 10° NNW
Okean-O 4.1 19:39:09 11° SSW 19:42:49 32° W 19:46:47 10° NNW
Lacrosse 5 3.6 19:38:43 10° WSW 19:43:19 34° NW 19:47:56 10° NNE
Ariane Rocket 3.0 19:43:20 34° SE 19:45:30 67° ENE 19:50:32 10° N
Helios 1B 4.4 19:42:09 10° NNE 19:46:26 69° ESE 19:48:00 38° S
Cosmos 1048 Rocket 4.3 19:42:15 10° N 19:47:31 56° ENE 19:49:28 36° SE
H-II Stage 2 3.7 19:46:03 10° SW 19:49:22 30° S 19:49:52 29° SSE
Landsat 5 4.0 19:48:11 10° NNE 19:52:20 41° E 19:52:34 41° ESE
Hubble Space Telescope 2.9 19:52:26 10° SW 19:53:19 14° SW 19:53:19 14° SW
Cosmos 921 Rocket 2.8 19:56:08 10° NNW 20:00:19 85° ENE 20:01:04 59° SSE
USA 215 3.8 19:57:32 27° S 20:00:47 46° SW 20:07:04 10° WNW
SPOT 3 Rocket 3.5 20:00:53 40° SSE 20:02:49 90° WSW 20:08:04 10° NNW
Cosmos 2150 Rocket 4.4 20:03:12 41° ESE 20:03:46 43° ESE 20:08:52 10° NNE
Nadezhda 3 Rocket 4.0 19:58:53 10° N 20:05:02 78° W 20:08:08 31° S
Cosmos 1125 Rocket 3.4 20:03:18 28° SSW 20:06:10 87° ESE 20:11:29 10° NNE
Cosmos 44 3.5 20:06:01 48° SSE 20:06:52 53° ESE 20:11:54 10° NE
Cosmos 1833 Rocket 3.9 20:03:21 10° N 20:08:11 28° ENE 20:09:53 24° E
ATLAS CENTAUR R/B 2.1 20:04:50 10° NNW 20:08:39 39° NE 20:09:01 38° ENE
SL-8 Rocket 4.2 20:07:08 40° SE 20:09:02 54° E 20:15:09 10° NNE
Cosmos 1437 Rocket 3.9 20:10:21 28° NE 20:10:21 28° NE 20:12:34 10° NNE
Cosmos 494 Rocket 4.2 20:04:09 10° NNW 20:09:21 63° WSW 20:11:10 39° S
Meteor 1-11 4.3 20:10:54 28° SSW 20:14:06 77° W 20:19:50 10° N
Cosmos 2327 Rocket 4.5 20:10:49 28° SSW 20:14:20 80° W 20:20:38 10° N
Cosmos 2228 3.9 20:11:20 10° N 20:14:52 35° ENE 20:14:52 35° ENE
Spot 1 4.3 20:12:15 10° NNE 20:17:23 81° ESE 20:18:42 51° S
MOS 1 Rocket 4.2 20:15:38 29° SSW 20:17:31 42° W 20:21:53 10° NNW
Cosmos 2278 Rocket 3.3 20:19:35 28° E 20:19:35 28° E 20:23:33 10° NE
NOSS 3-1 (C) 3.8 20:20:46 33° E 20:20:46 33° E 20:24:27 10° NE
Landsat 4 3.9 20:22:14 58° NW 20:22:14 58° NW 20:25:11 10° NNW
Cosmos 1544 Rocket 3.5 20:22:16 10° N 20:26:27 67° ENE 20:26:27 67° ENE
Cosmos 2218 Rocket 3.9 20:30:49 52° SSE 20:32:14 70° E 20:38:21 10° NNE
MetOp-A 3.6 20:35:58 79° SSE 20:36:14 87° ENE 20:40:47 10° NNW
SeaSat 1 4.4 20:36:09 16° ENE 20:37:29 18° NE 20:40:45 10° N
Cosmos 864 Rocket 4.4 20:36:41 52° S 20:38:19 81° E 20:44:34 10° N
Cosmos 2341 Rocket 4.0 20:37:47 42° SSW 20:40:02 79° W 20:46:23 10° N
CZ-2C R/B 4.1 20:38:42 10° NNE 20:42:35 51° ENE 20:42:35 51° ENE
Cosmos 1869 4.3 20:45:49 10° NNW 20:48:58 39° WNW 20:48:58 39° WNW
Cosmos 1943 Rocket 2.9 21:05:49 40° ENE 21:05:49 40° ENE 21:10:05 10° NE
Terra 4.4 21:10:45 10° WSW 21:11:57 11° W 21:13:09 10° WNW
ARIANE 5 R/B 3.1 21:15:02 57° N 21:15:02 57° N 21:18:37 10° N
Cosmos 1727 Rocket 3.9 21:09:41 10° N 21:16:02 71° E 21:16:30 68° ESE
Cosmos 1821 Rocket 3.9 21:20:31 70° SSW 21:21:16 81° W 21:27:37 10° N
Cosmos 614 Rocket 4.2 21:26:37 10° NNW 21:30:58 61° NW 21:30:58 61° NW
ALOS 2 3.8 21:37:29 37° NNE 21:37:29 37° NNE 21:40:32 10° N
Cosmos 1269 Rocket 4.4 21:31:40 10° N 21:36:25 55° NE 21:36:25 55° NE
H-2A R/B 4.0 21:45:54 32° N 21:45:54 32° N 21:48:04 10° N
ATLAS CENTAUR R/B 4.0 21:43:14 10° WNW 21:43:55 13° WNW 21:43:55 13° WNW
ATLAS 3B R/B 2.6 21:47:32 75° S 21:48:06 81° ESE 21:55:39 10° NE
Cosmos 1833 Rocket 3.6 21:46:58 10° NW 21:51:33 37° W 21:51:33 37° W
Cosmos 2082 Rocket 2.4 21:55:44 10° NNW 22:00:55 64° NE 22:00:55 64° NE
Milstar 3 4.3 22:00:59 48° S 22:02:09 49° SSE 22:20:58 10° E
Cosmos 2278 Rocket 3.4 22:01:22 32° W 22:02:38 36° WNW 22:07:50 10° N
H-2A R/B 4.2 21:59:57 10° NE 22:01:17 18° NE 22:01:17 18° NE
USA 281 3.5 22:04:18 52° E 22:05:15 57° ENE 22:11:40 10° NNW
Cosmos 2369 Rocket 3.8 22:08:34 23° ENE 22:08:34 23° ENE 22:11:32 10° NE
SeaSat 1 3.3 22:15:51 43° NW 22:15:51 43° NW 22:19:20 10° NNW
Cosmos 2123 Rocket 3.9 22:10:56 10° N 22:17:07 81° WNW 22:17:07 81° WNW
USA 234 4.0 22:11:51 10° ENE 22:16:31 38° E 22:16:31 38° E
COSMOS 2406 3.4 22:19:12 10° NNW 22:24:14 70° N 22:24:14 70° N
Meteor 2-3 Rocket 3.9 22:37:58 72° NNE 22:37:58 72° NNE 22:43:03 10° N
Cosmos 1140 Rocket 4.0 22:32:54 10° NNW 22:36:51 54° NNW 22:36:51 54° NNW
CZ-4C R/B 3.8 22:33:31 10° NNW 22:40:38 48° NE 22:45:46 24° ESE
NOSS 3-1 (A) 4.5 22:45:18 27° WNW 22:46:23 30° NW 22:51:21 10° NNE
Cosmos 1943 Rocket 3.8 22:47:18 23° WNW 22:48:38 25° WNW 22:53:14 10° N
Meteor 1-26 Rocket 4.4 22:53:36 10° N 22:58:43 65° NE 22:58:43 65° NE
Cosmos 2285 Rocket 4.4 22:53:42 10° N 23:00:01 56° ENE 23:00:55 52° E
Cosmos 2346 Rocket 4.5 22:55:58 10° N 23:02:06 70° E 23:02:13 70° E
Cosmos 1190 Rocket 4.5 23:02:37 10° N 23:07:20 55° NE 23:07:20 55° NE
USA 229 DEB 3.5 23:12:37 64° WNW 23:13:03 66° NW 23:19:37 10° NNE
USA 229 3.5 23:12:46 65° WNW 23:13:10 67° NW 23:19:45 10° NNE
Cosmos 2297 3.9 23:13:42 62° NW 23:13:42 62° NW 23:19:11 10° NNE
Lacrosse 5 rocket 3.4 23:21:19 22° NE 23:21:19 22° NE 23:22:50 10° NE
Lacrosse 4 Rocket 3.0 23:24:10 31° NE 23:24:10 31° NE 23:26:23 10° NNE
Iridium 4 Rocket 3.8 23:16:59 10° N 23:22:24 72° WNW 23:22:24 72° WNW
IDEFIX/ARIANE 42P 4.0 23:18:28 10° NE 23:22:46 27° E 23:22:46 27° E
Cosmos 1725 Rocket 4.5 23:25:27 47° ESE 23:26:13 50° E 23:32:16 10° NNE
Meteor 2-8 Rocket 4.5 23:29:08 64° ESE 23:29:28 65° E 23:35:28 10° NNE
Cosmos 1459 Rocket 3.9 23:30:20 79° SSE 23:30:45 86° E 23:37:08 10° N
Cosmos 2221 3.6 23:26:59 10° N 23:29:47 41° N 23:29:47 41° N
Meteor 2-15 4.3 23:31:20 81° W 23:31:26 82° W 23:37:32 10° N
Cosmos 1953 Rocket 4.4 23:34:41 50° NNE 23:34:41 50° NNE 23:38:03 10° N
Cosmos 2100 Rocket 3.8 23:33:27 80° WSW 23:33:38 82° W 23:39:50 10° N
Cosmos 1802 Rocket 4.0 23:33:11 65° SE 23:33:47 70° E 23:40:02 10° NNE
Cosmos 1371 Rocket 4.4 23:34:48 56° NW 23:34:48 56° NW 23:39:44 10° N
ISS -0.5 23:31:55 10° NNW 23:32:02 11° NNW 23:32:02 11° NNW
COSMOS 2455 4.1 23:32:00 10° NNW 23:37:33 36° NE 23:42:03 15° ESE
H-2A R/B 4.2 23:36:16 10° NNW 23:38:04 17° NW 23:38:04 17° NW
Meteor 2-16 Rocket 4.4 23:33:31 10° N 23:39:40 72° E 23:40:25 64° SE
SL-8 R/B 4.3 23:44:02 51° NNW 23:44:02 51° NNW 23:48:40 10° NE
Cosmos 2082 Rocket 4.4 23:41:44 10° WNW 23:42:44 12° WNW 23:42:44 12° WNW
MOZ.5/SAFIR/RUBIN 5/SL-8 4.3 23:45:21 51° ENE 23:45:21 51° ENE 23:49:46 10° N
Cosmos 2061 Rocket 4.4 23:44:31 45° SE 23:45:39 51° E 23:51:36 10° NNE
Cosmos 1076 Rocket 4.3 23:47:10 50° NNE 23:47:10 50° NNE 23:50:30 10° NNE
CZ-2D R/B 3.1 23:46:01 10° NNE 23:50:43 33° E 23:51:15 33° ESE
Cosmos 2369 Rocket 3.0 23:50:20 38° WNW 23:50:44 39° WNW 23:55:59 10° N
NPP 4.0 23:48:30 10° NNE 23:53:47 53° E 23:54:09 52° ESE
